| time (UTC) | temp F | wind direction | speed MPH | gust MPH | rain 1hr in | rain 24hr in | rain mn in | humidity % | barometer mb |
| 20260507114015 | 40 | 181 | 6.0 | 10.0 | 0.00 | 0.01 | 0.00 | 92 | |
| 20260507113017 | 40 | 181 | 6.0 | 10.0 | 0.00 | 0.01 | 0.00 | 93 | |
| 20260507112015 | 40 | 181 | 6.0 | 10.0 | 0.00 | 0.01 | 0.00 | 93 | |
| 20260507111015 | 40 | 181 | 6.0 | 11.0 | 0.00 | 0.01 | 0.00 | 91 | |
| 20260507110017 | 41 | 181 | 6.0 | 11.0 | 0.00 | 0.01 | 0.00 | 91 | |
| 20260507105015 | 40 | 181 | 5.0 | 7.0 | 0.00 | 0.01 | 0.00 | 93 | |
| 20260507104036 | 40 | 181 | 6.0 | 10.0 | 0.00 | 0.01 | 0.00 | 94 | |
| 20260507103015 | 40 | 181 | 6.0 | 10.0 | 0.00 | 0.01 | 0.00 | 95 | |
| 20260507102035 | 40 | 181 | 5.0 | 8.0 | 0.00 | 0.01 | 0.00 | 96 | |
| 20260507101016 | 39 | 181 | 5.0 | 9.0 | 0.00 | 0.01 | 0.00 | 97 | |
| 20260507100015 | 39 | 181 | 5.0 | 7.0 | 0.00 | 0.01 | 0.00 | 96 | |
| 20260507095015 | 39 | 181 | 4.0 | 8.0 | 0.00 | 0.01 | 0.00 | 96 | |
| 20260507094016 | 39 | 181 | 5.0 | 9.0 | 0.00 | 0.01 | 0.00 | 96 | |
| 20260507093017 | 39 | 181 | 5.0 | 7.0 | 0.00 | 0.01 | 0.00 | 96 | |
| 20260507092016 | 40 | 181 | 4.0 | 8.0 | 0.00 | 0.01 | 0.00 | 96 | |
| 20260507091035 | 39 | 181 | 5.0 | 8.0 | 0.00 | 0.01 | 0.00 | 96 | |
| 20260507090056 | 39 | 181 | 3.0 | 5.0 | 0.00 | 0.01 | 0.00 | 96 | |
| 20260507085036 | 39 | 181 | 3.0 | 6.0 | 0.00 | 0.01 | 0.00 | 97 | |
| 20260507084036 | 39 | 181 | 3.0 | 5.0 | 0.00 | 0.01 | 0.00 | 96 | |
| 20260507083015 | 40 | 181 | 3.0 | 6.0 | 0.00 | 0.01 | 0.00 | 96 | |
| 20260507082015 | 40 | 181 | 3.0 | 5.0 | 0.00 | 0.01 | 0.00 | 96 | |
| 20260507081035 | 40 | 181 | 3.0 | 6.0 | 0.00 | 0.01 | 0.00 | 96 | |
| 20260507080015 | 40 | 181 | 3.0 | 5.0 | 0.00 | 0.01 | 0.00 | 96 | |
| 20260507075015 | 40 | 181 | 3.0 | 6.0 | 0.00 | 0.01 | 0.00 | 96 | |
| 20260507074015 | 40 | 181 | 2.0 | 4.0 | 0.00 | 0.01 | 0.00 | 97 | |
| 20260507073037 | 40 | 181 | 3.0 | 6.0 | 0.00 | 0.01 | 0.00 | 97 | |
| 20260507072036 | 40 | 181 | 3.0 | 5.0 | 0.00 | 0.01 | 0.00 | 97 | |
| 20260507071016 | 39 | 181 | 3.0 | 5.0 | 0.00 | 0.01 | 0.00 | 97 | |
| 20260507070015 | 39 | 181 | 3.0 | 5.0 | 0.00 | 0.02 | 0.00 | 97 | |
| 20260507065015 | 39 | 181 | 4.0 | 6.0 | 0.00 | 0.02 | 0.00 | 96 | |
| 20260507064015 | 40 | 181 | 4.0 | 6.0 | 0.00 | 0.02 | 0.00 | 97 | |
| 20260507063016 | 40 | 181 | 3.0 | 7.0 | 0.00 | 0.03 | 0.00 | 96 | |
| 20260507062035 | 40 | 181 | 3.0 | 5.0 | 0.00 | 0.03 | 0.00 | 96 | |
| 20260507061015 | 41 | 181 | 3.0 | 5.0 | 0.00 | 0.04 | 0.00 | 96 | |
| 20260507060036 | 41 | 181 | 2.0 | 5.0 | 0.00 | 0.04 | 0.00 | 96 | |
| 20260507055015 | 41 | 181 | 1.0 | 3.0 | 0.00 | 0.04 | 0.00 | 96 | |
| 20260507054016 | 42 | 0.0 | 0.0 | 0.00 | 0.04 | 0.00 | 96 | ||
| 20260507053015 | 42 | 181 | 1.0 | 3.0 | 0.00 | 0.04 | 0.00 | 95 | |
| 20260507052016 | 43 | 181 | 2.0 | 4.0 | 0.00 | 0.04 | 0.00 | 95 | |
| 20260507051015 | 43 | 181 | 1.0 | 4.0 | 0.00 | 0.04 | 0.00 | 95 | |
| 20260507050038 | 43 | 181 | 3.0 | 6.0 | 0.00 | 0.04 | 0.00 | 95 | |
| 20260507045015 | 44 | 181 | 3.0 | 4.0 | 0.00 | 0.04 | 0.00 | 94 | |
| 20260507044015 | 44 | 181 | 2.0 | 4.0 | 0.00 | 0.04 | 0.00 | 93 | |
| 20260507043015 | 44 | 181 | 2.0 | 5.0 | 0.00 | 0.04 | 0.00 | 93 | |
| 20260507042015 | 44 | 181 | 3.0 | 6.0 | 0.00 | 0.04 | 0.00 | 92 | |
| 20260507041015 | 44 | 181 | 2.0 | 5.0 | 0.00 | 0.04 | 0.00 | 91 | |
| 20260507040056 | 45 | 181 | 3.0 | 5.0 | 0.00 | 0.04 | 0.00 | 89 | |
| 20260507035015 | 45 | 181 | 4.0 | 6.0 | 0.00 | 0.04 | 0.00 | 87 | |
| 20260507034015 | 46 | 181 | 2.0 | 5.0 | 0.00 | 0.04 | 0.00 | 85 | |
| 20260507033015 | 46 | 0.0 | 0.0 | 0.00 | 0.04 | 0.00 | 85 | ||
| 20260507032015 | 47 | 0.0 | 0.0 | 0.00 | 0.04 | 0.00 | 84 | ||
| 20260507031016 | 47 | 181 | 2.0 | 5.0 | 0.00 | 0.04 | 0.00 | 83 | |
| 20260507030015 | 47 | 0.0 | 0.0 | 0.00 | 0.04 | 0.00 | 82 | ||
| 20260507025056 | 48 | 0.0 | 0.0 | 0.00 | 0.04 | 0.00 | 82 | ||
| 20260507024015 | 49 | 0.0 | 0.0 | 0.00 | 0.04 | 0.00 | 81 | ||
| 20260507023015 | 49 | 0.0 | 0.0 | 0.00 | 0.04 | 0.00 | 80 | ||
| 20260507022015 | 49 | 0.0 | 0.0 | 0.00 | 0.04 | 0.00 | 79 | ||
| 20260507021016 | 50 | 0.0 | 0.0 | 0.00 | 0.04 | 0.00 | 78 | ||
| 20260507020015 | 50 | 0.0 | 0.0 | 0.00 | 0.04 | 0.00 | 77 | ||
| 20260507015016 | 50 | 0.0 | 0.0 | 0.00 | 0.04 | 0.00 | 77 | ||
| 20260507014015 | 50 | 0.0 | 0.0 | 0.00 | 0.04 | 0.00 | 76 | ||
| 20260507013016 | 50 | 0.0 | 0.0 | 0.00 | 0.04 | 0.00 | 75 | ||
| 20260507012015 | 51 | 0.0 | 0.0 | 0.00 | 0.04 | 0.00 | 75 | ||
| 20260507011016 | 51 | 0.0 | 0.0 | 0.00 | 0.04 | 0.00 | 73 | ||
| 20260507010055 | 51 | 0.0 | 0.0 | 0.00 | 0.04 | 0.00 | 71 | ||
| 20260507005036 | 51 | 0.0 | 0.0 | 0.00 | 0.04 | 0.00 | 70 | ||
| 20260507004015 | 52 | 0.0 | 0.0 | 0.00 | 0.04 | 0.00 | 69 | ||
| 20260507003016 | 52 | 0.0 | 0.0 | 0.00 | 0.04 | 0.00 | 69 | ||
| 20260507002015 | 52 | 0.0 | 0.0 | 0.00 | 0.04 | 0.00 | 68 | ||
| 20260507001015 | 52 | 0.0 | 0.0 | 0.00 | 0.04 | 0.00 | 68 | ||
| 20260507000015 | 52 | 0.0 | 0.0 | 0.00 | 0.04 | 0.00 | 68 | ||
| 20260506235015 | 52 | 0.0 | 0.0 | 0.00 | 0.04 | 0.04 | 67 | ||
| 20260506234015 | 52 | 0.0 | 0.0 | 0.00 | 0.04 | 0.04 | 67 | ||
| 20260506233015 | 53 | 0.0 | 0.0 | 0.00 | 0.04 | 0.04 | 67 | ||
| 20260506232035 | 52 | 0.0 | 0.0 | 0.00 | 0.04 | 0.04 | 68 | ||
| 20260506231035 | 52 | 0.0 | 0.0 | 0.00 | 0.04 | 0.04 | 67 | ||
| 20260506230015 | 52 | 181 | 1.0 | 5.0 | 0.00 | 0.04 | 0.04 | 68 | |
| 20260506225035 | 52 | 0.0 | 0.0 | 0.00 | 0.04 | 0.04 | 69 | ||
| 20260506224016 | 51 | 181 | 2.0 | 4.0 | 0.00 | 0.04 | 0.04 | 69 | |
| 20260506223015 | 51 | 181 | 1.0 | 2.0 | 0.00 | 0.04 | 0.04 | 71 | |
| 20260506222016 | 51 | 181 | 2.0 | 4.0 | 0.00 | 0.04 | 0.04 | 70 | |
| 20260506221035 | 52 | 181 | 4.0 | 6.0 | 0.00 | 0.04 | 0.04 | 70 | |
| 20260506220015 | 52 | 181 | 3.0 | 7.0 | 0.00 | 0.04 | 0.04 | 71 | |
| 20260506215015 | 52 | 181 | 2.0 | 5.0 | 0.00 | 0.04 | 0.04 | 69 | |
| 20260506214015 | 51 | 181 | 4.0 | 8.0 | 0.00 | 0.04 | 0.04 | 73 | |
| 20260506213015 | 51 | 181 | 4.0 | 7.0 | 0.00 | 0.04 | 0.04 | 74 | |
| 20260506212015 | 51 | 181 | 4.0 | 8.0 | 0.00 | 0.04 | 0.04 | 73 | |
| 20260506211015 | 50 | 181 | 2.0 | 5.0 | 0.00 | 0.04 | 0.04 | 72 | |
| 20260506210016 | 50 | 181 | 3.0 | 7.0 | 0.00 | 0.04 | 0.04 | 75 | |
| 20260506205015 | 50 | 181 | 4.0 | 7.0 | 0.00 | 0.04 | 0.04 | 75 | |
| 20260506204015 | 50 | 181 | 5.0 | 8.0 | 0.00 | 0.04 | 0.04 | 77 | |
| 20260506203015 | 50 | 181 | 4.0 | 7.0 | 0.00 | 0.04 | 0.04 | 76 | |
| 20260506202016 | 49 | 181 | 5.0 | 8.0 | 0.00 | 0.04 | 0.04 | 78 | |
| 20260506201015 | 49 | 181 | 4.0 | 8.0 | 0.00 | 0.04 | 0.04 | 77 | |
| 20260506200015 | 48 | 181 | 2.0 | 10.0 | 0.00 | 0.04 | 0.04 | 83 | |
| 20260506195015 | 48 | 0.0 | 0.0 | 0.00 | 0.04 | 0.04 | 83 | ||
| 20260506194015 | 48 | 181 | 4.0 | 8.0 | 0.00 | 0.04 | 0.04 | 83 | |
| 20260506193015 | 48 | 181 | 4.0 | 8.0 | 0.00 | 0.04 | 0.04 | 81 | |
| 20260506192015 | 49 | 181 | 3.0 | 6.0 | 0.00 | 0.04 | 0.04 | 78 | |
| 20260506191016 | 49 | 181 | 4.0 | 9.0 | 0.00 | 0.04 | 0.04 | 78 | |
| 20260506190015 | 49 | 181 | 2.0 | 6.0 | 0.00 | 0.04 | 0.04 | 81 | |
| 20260506185015 | 49 | 181 | 1.0 | 4.0 | 0.00 | 0.04 | 0.04 | 82 | |
| 20260506184015 | 49 | 181 | 2.0 | 5.0 | 0.00 | 0.04 | 0.04 | 80 | |
| 20260506183036 | 49 | 181 | 2.0 | 4.0 | 0.00 | 0.04 | 0.04 | 81 | |
| 20260506182015 | 47 | 181 | 2.0 | 6.0 | 0.00 | 0.04 | 0.04 | 85 | |
| 20260506181036 | 47 | 181 | 3.0 | 5.0 | 0.00 | 0.04 | 0.04 | 89 | |
| 20260506180016 | 47 | 181 | 3.0 | 6.0 | 0.00 | 0.04 | 0.04 | 85 | |
| 20260506175035 | 46 | 181 | 5.0 | 9.0 | 0.00 | 0.04 | 0.04 | 89 | |
| 20260506174015 | 46 | 181 | 5.0 | 8.0 | 0.00 | 0.04 | 0.04 | 91 | |
| 20260506173015 | 45 | 181 | 5.0 | 8.0 | 0.00 | 0.04 | 0.04 | 92 | |
| 20260506172015 | 45 | 181 | 6.0 | 10.0 | 0.00 | 0.04 | 0.04 | 93 | |
| 20260506171015 | 45 | 181 | 6.0 | 11.0 | 0.00 | 0.04 | 0.04 | 93 | |
| 20260506170015 | 45 | 181 | 4.0 | 8.0 | 0.00 | 0.04 | 0.04 | 94 | |
| 20260506165015 | 44 | 181 | 5.0 | 9.0 | 0.00 | 0.04 | 0.04 | 95 | |
| 20260506164016 | 45 | 181 | 6.0 | 10.0 | 0.00 | 0.04 | 0.04 | 95 | |
| 20260506163015 | 45 | 181 | 6.0 | 10.0 | 0.00 | 0.04 | 0.04 | 96 | |
| 20260506162016 | 43 | 181 | 6.0 | 9.0 | 0.00 | 0.04 | 0.04 | 96 | |
| 20260506161015 | 43 | 181 | 5.0 | 9.0 | 0.00 | 0.04 | 0.04 | 97 | |
| 20260506160037 | 43 | 181 | 6.0 | 10.0 | 0.00 | 0.04 | 0.04 | 96 | |
| 20260506155015 | 43 | 181 | 6.0 | 9.0 | 0.00 | 0.04 | 0.04 | 97 | |
| 20260506154015 | 43 | 181 | 6.0 | 9.0 | 0.00 | 0.04 | 0.04 | 97 | |
| 20260506153036 | 43 | 181 | 5.0 | 9.0 | 0.01 | 0.04 | 0.04 | 97 | |
| 20260506152016 | 43 | 181 | 6.0 | 9.0 | 0.01 | 0.04 | 0.04 | 97 | |
| 20260506151016 | 42 | 181 | 6.0 | 10.0 | 0.01 | 0.04 | 0.04 | 97 | |
| 20260506150036 | 42 | 181 | 6.0 | 9.0 | 0.01 | 0.04 | 0.04 | 97 | |
| 20260506145015 | 42 | 181 | 7.0 | 10.0 | 0.01 | 0.04 | 0.04 | 97 | |
| 20260506144015 | 42 | 181 | 6.0 | 9.0 | 0.01 | 0.04 | 0.04 | 97 | |
| 20260506143015 | 42 | 181 | 6.0 | 9.0 | 0.00 | 0.03 | 0.03 | 96 | |
| 20260506142035 | 43 | 181 | 5.0 | 9.0 | 0.00 | 0.03 | 0.03 | 96 | |
| 20260506141015 | 43 | 181 | 5.0 | 9.0 | 0.00 | 0.03 | 0.03 | 96 | |
| 20260506140015 | 43 | 181 | 5.0 | 8.0 | 0.00 | 0.03 | 0.03 | 96 | |
| 20260506135016 | 43 | 181 | 5.0 | 8.0 | 0.00 | 0.03 | 0.03 | 97 | |
| 20260506134015 | 43 | 181 | 4.0 | 7.0 | 0.00 | 0.03 | 0.03 | 97 | |
| 20260506133016 | 43 | 181 | 4.0 | 9.0 | 0.00 | 0.03 | 0.03 | 97 | |
| 20260506132015 | 43 | 181 | 4.0 | 8.0 | 0.00 | 0.03 | 0.03 | 97 | |
| 20260506131015 | 42 | 181 | 4.0 | 8.0 | 0.00 | 0.03 | 0.03 | 97 | |
| 20260506130015 | 42 | 181 | 4.0 | 8.0 | 0.00 | 0.03 | 0.03 | 97 | |
| 20260506125015 | 42 | 181 | 5.0 | 8.0 | 0.00 | 0.03 | 0.03 | 96 | |
| 20260506124055 | 42 | 181 | 5.0 | 9.0 | 0.00 | 0.03 | 0.03 | 97 | |
| 20260506123016 | 42 | 181 | 4.0 | 6.0 | 0.00 | 0.03 | 0.03 | 97 | |
| 20260506122036 | 42 | 181 | 3.0 | 6.0 | 0.00 | 0.03 | 0.03 | 97 | |
| 20260506121015 | 42 | 181 | 5.0 | 7.0 | 0.00 | 0.03 | 0.03 | 97 | |
| 20260506120015 | 42 | 181 | 5.0 | 8.0 | 0.00 | 0.03 | 0.03 | 97 | |
| 20260506115036 | 42 | 181 | 4.0 | 7.0 | 0.00 | 0.03 | 0.03 | 97 |